Grenchen Airport LSZG

Flugplatz Daten

Name: Grenchen Airport

Ident: LSZG

Lat: 47,18159866

Long: 7,417190075

Platzhöhe: 1411 ft

IataCode: ZHI

City:

Metar

2022/08/10 20:20
LSZG 102020Z AUTO 04004KT 9999 NCD 21/08 Q1020

Taf

Gewünschte Webcam nicht vorhanden? Dann fügen Sie eine hinzu. Sie wird dann so schnell wie möglich freigeschaltet
Url: Title: